This demonstration page uses our WeatherBlox Daily Observations layout. Learn more.

Left ArrowRight Arrow

44.89941, -97.11507

Hourly Observations for May 18, 2022

Temp ( °F °C ) Dew Point ( °F °C ) Humidity (%) Winds ( mph kmh ) Pressure ( in mb ) Visibility ( mi km ) Precip ( " mm )
12:13 am 00:13 Mostly Clear 53 11.7 51 10.6 93 93 ESE 6 9 29.89 1012 10 16 0.00 0.00
12:41 am 00:41 Mostly Cloudy 53 11.7 51 10.6 93 93 VRB 3 6 29.89 1012 10 16 0.00 0.00
12:53 am 00:53 Cloudy 53 11.7 51 10.6 93 93 E 3 6 29.88 1012 10 16 0.00 0.00
1:53 am 01:53 Cloudy 52 11.1 51 10.6 97 97 SE 7 11 29.87 1012 10 16 0.00 0.00
2:23 am 02:23 Cloudy 52 11.1 51 10.6 97 97 ESE 7 11 29.85 1011 8 13 0.00 0.00
2:53 am 02:53 Cloudy 52 11.1 51 10.6 97 97 SE 7 11 29.86 1011 7 11 0.00 0.00
3:35 am 03:35 Mostly Clear with Mist and Fog 51 10.6 51 10.6 100 100 Calm 29.87 1011 6 10 0.00 0.00
3:53 am 03:53 Mostly Clear with Mist and Fog 50 10 48 8.9 93 93 SSE 5 7 29.88 1012 6 10 0.00 0.00
4:05 am 04:05 Mostly Cloudy with Mist and Fog 51 10.6 50 10 96 96 SSE 6 9 29.89 1012 3 4 0.00 0.00
4:12 am 04:12 Mostly Cloudy with Mist and Fog 51 10.6 50 10 96 96 SSE 7 11 29.89 1012 1 2 0.00 0.00
4:21 am 04:21 Cloudy with Fog 50 10 50 10 100 100 S 6 9 29.89 1012 1 1 0.00 0.00
4:28 am 04:28 Mostly Cloudy with Fog 51 10.6 50 10 96 96 SSE 7 11 29.89 1012 0 0 0.00 0.00
4:53 am 04:53 Mostly Cloudy with Fog 50 10 50 10 100 100 S 6 9 29.88 1012 0 0 0.00 0.00
5:53 am 05:53 Mostly Cloudy with Fog 51 10.6 51 10.6 100 100 S 3 6 29.88 1012 0 0 0.00 0.00
6:20 am 06:20 Mostly Cloudy with Fog 51 10.6 51 10.6 100 100 WSW 3 6 29.87 1011 N/A 0.00 0.00
6:53 am 06:53 Mostly Cloudy with Fog 50 10 50 10 100 100 WNW 3 6 29.87 1012 N/A 0.00 0.00
7:53 am 07:53 Mostly Cloudy with Fog 51 10.6 51 10.6 100 100 Calm 29.87 1012 0 0 0.00 0.00
8:36 am 08:36 Cloudy with Mist and Fog 52 11.1 52 11.1 100 100 SW 7 11 29.86 1011 1 1 0.00 0.00
8:53 am 08:53 Cloudy with Mist and Fog 53 11.7 53 11.7 100 100 SW 5 7 29.86 1011 2 2 0.00 0.00
8:57 am 08:57 Cloudy with Mist and Fog 53 11.7 53 11.7 100 100 SW 5 7 29.85 1011 3 5 0.00 0.00
9:35 am 09:35 Partly Cloudy 59 15 56 13.3 90 90 W 9 15 29.84 1010 10 16 0.00 0.00
9:53 am 09:53 Sunny 60 15.6 55 12.8 84 84 W 8 13 29.85 1011 10 16 0.00 0.00
10:53 am 10:53 Sunny 67 19.4 57 13.9 71 71 W 16 26 29.84 1010 10 16 0.00 0.00
11:53 am 11:53 Sunny 69 20.6 56 13.3 63 63 W 13 20 29.83 1010 10 16 0.00 0.00
12:53 pm 12:53 Mostly Sunny 70 21.1 57 13.9 64 64 W 13 20 29.81 1009 10 16 0.00 0.00
1:53 pm 13:53 Partly Cloudy 72 22.2 52 11.1 50 50 W 15 24 29.82 1010 10 16 0.00 0.00
2:53 pm 14:53 Sunny 74 23.3 50 10 43 43 WNW 14 22 29.79 1009 10 16 0.00 0.00
3:53 pm 15:53 Sunny 74 23.3 48 8.9 40 40 W 18 30 29.77 1008 10 16 0.00 0.00
4:53 pm 16:53 Mostly Sunny 73 22.8 50 10 44 44 W 9 15 29.75 1007 10 16 0.00 0.00
5:53 pm 17:53 Partly Cloudy 71 21.7 45 7.2 39 39 WNW 15 24 29.72 1007 10 16 0.00 0.00
6:53 pm 18:53 Mostly Sunny 72 22.2 46 7.8 40 40 WNW 12 19 29.71 1006 10 16 0.00 0.00
7:53 pm 19:53 Sunny 70 21.1 40 4.4 34 34 WNW 10 17 29.70 1006 10 16 0.00 0.00
8:53 pm 20:53 Sunny 62 16.7 46 7.8 56 56 NNW 7 11 29.72 1007 10 16 0.00 0.00
9:53 pm 21:53 Clear 61 16.1 45 7.2 56 56 Calm 29.73 1007 10 16 0.00 0.00
10:53 pm 22:53 Clear 57 13.9 47 8.3 69 69 WNW 5 7 29.73 1007 10 16 0.00 0.00
11:53 pm 23:53 Clear 53 11.7 46 7.8 77 77 S 3 6 29.72 1007 10 16 0.00 0.00

Powered by AerisWeather